Location: Follega
(52.8850°N, 5.7362°E)
Time: 00:09:17
(UTC+00:00)

ERS-1 Rocket - Pass Details

Date: 02 October 2020
Orbit: 753 x 757 km, 98.5° (Epoch: 24 October)

Event Time Altitude Azimuth Distance (km) Brightness Sun altitude
Exits shadow 19:58:00 28° 39° (NE) 1,415 4.2 -25.2°
Drops below altitude 10° 20:01:21 10° 1° (N) 2,300 5.8 -25.6°
Sets 20:03:53 0° 351° (N) 3,230 6.8 -26.0°
